Torna al catalogo

SL-12 R/B(2)

AttivoGEO
NORAD 13630·ROCKET BODY·🇷🇺 Russia

Lanciato Oct 20, 1982 da Baikonur Cosmodrome

Loading…

TLE

AggiornatoSource: Space-Track

Epoca: Sep 14, 2026, 13:20 UTC

1 13630U 82103E   26257.55576073 -.00000050  00000-0  00000-0 0  9993
2 13630   7.1097 301.1982 0011762 200.2461 219.7800  1.00320351122406

Traccia SL-12 R/B(2) in tempo reale con AllMySat

Download on the App Store